Terminal Aerodrome Forecast
Issued by NWS Rapid City, SD

Home | Current Version | Previous Version | Graphics & Text | Print | Product List | Glossary On
Versions: 1 2 3 4 5 6 7 8 9 10 11 12 13 14 15 16 17 18
000
FTUS43 KUNR 140500
TAFRAP
TAF
KRAP 140520Z 1406/1506 34005KT P6SM SCT250
     FM141600 34018G28KT P6SM SCT250
     FM150100 05008KT P6SM BKN250=

USA.gov is the U.S. government's official web portal to all federal, state and local government web resources and services.